Pittsfield, MA

1:26 AM EDT on April 25, 2017 (GMT -0400)
Pittsfield Municipal

Weather History for KPSF - July, 2013

Change the Weather History Date:

Saturday, July 13, 2013

  Actual Average Record
Temperature  
Mean Temperature 69 °F 68 °F  
Max Temperature 75 °F 79 °F 93 °F (1935)
Min Temperature 62 °F 56 °F 46 °F (1970)
Degree Days  
Heating Degree Days 0 1  
Month to date heating degree days 0 13  
Since 1 June heating degree days 108 114  
Since 1 July heating degree days 0 13  
Cooling Degree Days 4 4  
Month to date cooling degree days 119 45  
Year to date cooling degree days 230 114  
Since 1 June cooling degree days 205 101  
Growing Degree Days 18 (Base 50)    
Moisture  
Dew Point 64 °F    
Average Humidity 78    
Maximum Humidity 97    
Minimum Humidity 58    
Precipitation  
Precipitation 0.05 in 0.14 in 0.94 in (1950)
Month to date precipitation 0.50 1.56  
Year to date precipitation 22.46 23.00  
Sea Level Pressure  
Sea Level Pressure 30.26 in    
Wind  
Wind Speed 4 mph (ENE)    
Max Wind Speed 10 mph    
Max Gust Speed 14 mph    
Visibility 9 miles    
Events Rain    
T = Trace of Precipitation, MM = Missing Value Source: NWS Daily Summary

Daily Weather History Graph

Daily Weather History Graph

Search for Another Location

Airport or City:

Trip Planner

Search our weather history database for the weather conditions in past years. The results will help you decide how hot, cold, wet, or windy it might be!

Date:

Astronomy

Jul. 13, 2013 Rise Set
Actual Time 5:28 AM EDT 8:29 PM EDT
Civil Twilight 4:54 AM EDT 9:03 PM EDT
Nautical Twilight 4:11 AM EDT 9:46 PM EDT
Astronomical Twilight 3:20 AM EDT 10:36 PM EDT
Moon 10:49 AM EDT (7/13) 11:00 PM EDT (7/13)
Length of Visible Light 16h 08m
Length of Day
15h 01m
Waxing Crescent, 25% of the Moon is Illuminated
Jul 13
Waxing Crescent
Jul 15
First Quarter
Jul 22
Full
Jul 29
Last Quarter
Aug 6
New

Hourly Weather History & Observations

Time (EDT) Temp. Dew Point Humidity Pressure Visibility Wind Dir Wind Speed Gust Speed Precip Events Conditions
12:54 AM 66.9 °F 53.1 °F 61% 30.13 in 10.0 mi NE 5.8 mph - N/A   Overcast
1:54 AM 66.0 °F 53.1 °F 63% 30.13 in 10.0 mi Calm Calm - N/A   Overcast
2:54 AM 64.9 °F 54.0 °F 68% 30.14 in 9.0 mi ENE 3.5 mph - 0.00 in Rain Light Rain
3:54 AM 66.0 °F 52.0 °F 60% 30.14 in 10.0 mi ENE 8.1 mph - 0.00 in   Overcast
4:20 AM 66.2 °F 53.6 °F 64% 30.22 in 10.0 mi NE 5.8 mph - N/A   Overcast
4:54 AM 66.0 °F 52.0 °F 60% 30.15 in 10.0 mi ENE 6.9 mph - N/A   Overcast
5:54 AM 66.0 °F 53.1 °F 63% 30.18 in 10.0 mi NE 4.6 mph - N/A   Overcast
6:41 AM 64.4 °F 55.4 °F 73% 30.26 in 2.5 mi East 3.5 mph - 0.00 in Rain Light Rain
6:54 AM 62.1 °F 57.0 °F 84% 30.20 in 2.0 mi Calm Calm - 0.02 in Rain Light Rain
7:02 AM 62.6 °F 57.2 °F 82% 30.26 in 10.0 mi Calm Calm - 0.00 in   Overcast
7:54 AM 62.1 °F 57.9 °F 86% 30.22 in 10.0 mi ENE 8.1 mph - 0.00 in   Overcast
8:07 AM 62.6 °F 57.2 °F 82% 30.29 in 10.0 mi ENE 4.6 mph - N/A   Overcast
8:54 AM 64.0 °F 60.1 °F 87% 30.23 in 10.0 mi ENE 6.9 mph - N/A   Overcast
9:54 AM 66.0 °F 61.0 °F 84% 30.23 in 10.0 mi NE 9.2 mph - N/A   Overcast
10:54 AM 66.9 °F 62.1 °F 84% 30.24 in 10.0 mi ENE 5.8 mph - N/A   Overcast
11:24 AM 66.2 °F 64.4 °F 94% 30.30 in 2.5 mi ENE 3.5 mph - 0.01 in Rain Light Rain
11:28 AM 66.2 °F 64.4 °F 94% 30.30 in 4.0 mi Calm Calm - 0.01 in Rain Light Rain
11:41 AM 66.2 °F 64.4 °F 94% 30.30 in 2.5 mi ENE 4.6 mph - 0.02 in Rain Light Rain
11:54 AM 66.9 °F 64.0 °F 90% 30.24 in 10.0 mi ENE 3.5 mph - 0.02 in Rain Light Rain
12:05 PM 68.0 °F 64.4 °F 88% 30.31 in 10.0 mi NNE 4.6 mph - 0.00 in Rain Light Rain
12:14 PM 68.0 °F 64.4 °F 88% 30.31 in 10.0 mi NE 4.6 mph - 0.00 in   Overcast
12:54 PM 69.1 °F 66.0 °F 90% 30.24 in 10.0 mi ENE 3.5 mph - 0.00 in   Overcast
1:36 PM 69.8 °F 66.2 °F 88% 30.31 in 7.0 mi NE 4.6 mph - 0.00 in Rain Light Rain
1:54 PM 71.1 °F 66.9 °F 87% 30.24 in 10.0 mi NE 3.5 mph - 0.00 in   Overcast
2:07 PM 71.6 °F 66.2 °F 83% 30.31 in 10.0 mi Calm Calm - N/A   Overcast
2:54 PM 72.0 °F 66.9 °F 84% 30.24 in 10.0 mi Calm Calm - N/A   Overcast
3:54 PM 73.0 °F 66.9 °F 81% 30.23 in 10.0 mi East 4.6 mph - N/A   Overcast
4:54 PM 73.9 °F 68.0 °F 82% 30.22 in 10.0 mi ESE 4.6 mph - N/A   Overcast
5:14 PM 73.4 °F 68.0 °F 83% 30.29 in 10.0 mi Calm Calm - N/A   Overcast
5:54 PM 75.0 °F 68.0 °F 79% 30.22 in 10.0 mi Calm Calm - N/A   Overcast
6:03 PM 73.4 °F 68.0 °F 83% 30.29 in 10.0 mi Calm Calm - N/A   Mostly Cloudy
6:23 PM 73.4 °F 68.0 °F 83% 30.29 in 10.0 mi ENE 3.5 mph - N/A   Overcast
6:47 PM 73.4 °F 68.0 °F 83% 30.30 in 10.0 mi Calm Calm - N/A   Overcast
6:54 PM 73.0 °F 68.0 °F 84% 30.23 in 10.0 mi Calm Calm - N/A   Overcast
7:03 PM 73.4 °F 68.0 °F 83% 30.30 in 10.0 mi Calm Calm - N/A   Overcast
7:17 PM 73.4 °F 68.0 °F 83% 30.31 in 10.0 mi Calm Calm - N/A   Overcast
7:54 PM 73.0 °F 69.1 °F 87% 30.24 in 9.0 mi Calm Calm - 0.00 in Rain Light Rain
8:54 PM 70.0 °F 69.1 °F 97% 30.24 in 6.0 mi East 3.5 mph - 0.01 in   Overcast
9:05 PM 71.6 °F 69.8 °F 94% 30.31 in 9.0 mi Calm Calm - N/A   Overcast
9:13 PM 71.6 °F 69.8 °F 94% 30.31 in 10.0 mi Calm Calm - N/A   Overcast
9:33 PM 71.6 °F 69.8 °F 94% 30.32 in 9.0 mi Calm Calm - N/A   Overcast
9:46 PM 71.6 °F 69.8 °F 94% 30.32 in 9.0 mi NNE 3.5 mph - N/A   Overcast
9:54 PM 71.1 °F 69.1 °F 93% 30.25 in 9.0 mi Calm Calm - N/A   Overcast
10:14 PM 71.6 °F 69.8 °F 94% 30.32 in 7.0 mi Calm Calm - N/A   Overcast
10:37 PM 71.6 °F 69.8 °F 94% 30.33 in 7.0 mi Calm Calm - N/A   Overcast
10:45 PM 71.6 °F 69.8 °F 94% 30.33 in 7.0 mi Calm Calm - 0.00 in Rain Light Rain
10:54 PM 71.1 °F 69.1 °F 93% 30.26 in 8.0 mi Calm Calm - 0.00 in   Overcast
11:06 PM 71.6 °F 69.8 °F 94% 30.33 in 6.0 mi Calm Calm - N/A   Overcast
11:22 PM 71.6 °F 69.8 °F 94% 30.33 in 8.0 mi Calm Calm - 0.00 in Rain Light Rain
11:38 PM 69.8 °F 68.0 °F 94% 30.32 in 8.0 mi SW 3.5 mph - 0.00 in   Scattered Clouds
11:50 PM 69.8 °F 68.0 °F 94% 30.32 in 8.0 mi West 3.5 mph - 0.00 in   Scattered Clouds
11:54 PM 69.1 °F 68.0 °F 96% 30.26 in 8.0 mi West 3.5 mph - 0.00 in   Partly Cloudy